M I D A S
Marine Information and Data Acquisition System
Tripno 806 of the Zeeleeuw from 2004-11-18 10:02:50 to 2004-11-18 14:23:46
Back to CruiseResearch ActivitiesStationsMapUnderway DataData graphs

EquipmentUnitsComments
TimeDGPSUTC
LatitudeDGPSDM.mWGS84
LongitudeDGPSDM.mWGS84
SpeedMeteo Stationm/sRelative wind speed
DirectionMeteo StationdegRelative wind direction
TemperatureMeteo Stationdeg CelciusAir temperature
PressureMeteo StationPaAtmospheric pressure
HumidityMeteo Station%Relative humidity
Missing or incorrect values are displayed as -999
Metereological data collected by the RV Zeeleeuw from 2004-11-18 10:02:50 to 2004-11-18 14:23:46
                                                                                    Next 1000 lines
Time Latitude Longitude Speed Direction Temperature Pressure Humidity
2004-11-18 10:03:03 51°22.589 3°13.154 6.7 259 8.8 101540 81
2004-11-18 10:03:06 51°22.589 3°13.152 6.8 261 8.8 101540 81
2004-11-18 10:03:13 51°22.59 3°13.15 8.3 269 8.8 101540 81
2004-11-18 10:03:15 51°22.59 3°13.149 8.4 266 8.8 101520 81
2004-11-18 10:03:40 51°22.591 3°13.143 8.1 272 8.9 101530 81
2004-11-18 10:03:46 51°22.591 3°13.14 7.7 267 8.9 101530 81
2004-11-18 10:03:50 51°22.591 3°13.14 7 271 8.9 101520 81
2004-11-18 10:03:56 51°22.591 3°13.137 7.7 276 8.9 101520 81
2004-11-18 10:04:00 51°22.591 3°13.136 9.7 278 8.9 101520 81
2004-11-18 10:04:06 51°22.591 3°13.133 7.6 275 8.9 101520 81
2004-11-18 10:04:11 51°22.591 3°13.131 7.7 273 8.9 101520 81
2004-11-18 10:04:16 51°22.591 3°13.13 7.1 274 8.9 101520 81
2004-11-18 10:04:20 51°22.592 3°13.127 7.5 273 8.9 101530 81
2004-11-18 10:04:26 51°22.591 3°13.125 7.6 271 8.9 101530 81
2004-11-18 10:04:31 51°22.592 3°13.122 6.3 276 8.9 101530 81
2004-11-18 10:04:36 51°22.592 3°13.119 6.2 274 8.9 101530 81
2004-11-18 10:04:41 51°22.592 3°13.118 7.2 275 8.9 101530 81
2004-11-18 10:04:46 51°22.592 3°13.116 7.3 280 8.9 101530 81
2004-11-18 10:04:51 51°22.592 3°13.113 7.8 283 8.9 101520 81
2004-11-18 10:04:56 51°22.592 3°13.11 7.6 278 8.9 101520 81
2004-11-18 10:05:00 51°22.592 3°13.108 8.2 281 8.9 101530 81
2004-11-18 10:05:06 51°22.591 3°13.106 7.2 282 8.9 101530 81
2004-11-18 10:05:10 51°22.592 3°13.104 7.9 279 8.9 101530 81
2004-11-18 10:05:16 51°22.591 3°13.102 8.5 280 8.9 101530 81
2004-11-18 10:05:20 51°22.592 3°13.099 8.7 280 8.9 101530 81
2004-11-18 10:05:26 51°22.591 3°13.098 8 279 8.9 101530 81
2004-11-18 10:05:30 51°22.591 3°13.095 6.2 285 8.9 101510 80
2004-11-18 10:05:36 51°22.591 3°13.092 6.1 289 8.9 101510 80
2004-11-18 10:05:42 51°22.59 3°13.091 7 279 8.9 101530 80
2004-11-18 10:05:46 51°22.59 3°13.089 7.9 277 8.9 101530 80
2004-11-18 10:05:51 51°22.59 3°13.087 7.7 275 8.9 101530 80
2004-11-18 10:05:56 51°22.59 3°13.084 6.9 275 8.9 101530 80
2004-11-18 10:06:01 51°22.59 3°13.082 8.3 277 8.9 101520 80
2004-11-18 10:06:12 51°22.59 3°13.078 8 277 8.9 101520 80
2004-11-18 10:06:16 51°22.589 3°13.076 8.2 277 8.9 101520 80
2004-11-18 10:06:22 51°22.589 3°13.074 8 280 8.9 101520 80
2004-11-18 10:06:26 51°22.589 3°13.072 7.7 278 8.9 101520 80
2004-11-18 10:06:31 51°22.589 3°13.07 8.8 281 8.9 101520 80
2004-11-18 10:06:37 51°22.589 3°13.067 9 274 8.9 101520 80
2004-11-18 10:06:42 51°22.589 3°13.066 8.6 274 8.9 101520 80
2004-11-18 10:06:44 51°22.589 3°13.064 7.5 280 8.9 101520 80
2004-11-18 10:06:56 51°22.589 3°13.06 9.9 275 8.9 101510 80
2004-11-18 10:07:00 51°22.589 3°13.059 9.4 278 8.9 101520 80
2004-11-18 10:07:05 51°22.589 3°13.057 9.2 274 8.9 101520 80
2004-11-18 10:07:10 51°22.589 3°13.055 9 275 8.9 101520 80
2004-11-18 10:07:16 51°22.59 3°13.053 7.6 276 8.9 101520 80
2004-11-18 10:07:21 51°22.591 3°13.051 6.7 280 8.9 101520 80
2004-11-18 10:07:26 51°22.591 3°13.049 6.7 283 8.9 101520 80
2004-11-18 10:07:30 51°22.592 3°13.047 8.2 277 8.9 101520 80
2004-11-18 10:07:36 51°22.593 3°13.046 7.7 292 8.9 101520 80
2004-11-18 10:07:40 51°22.594 3°13.044 7.8 286 8.9 101520 80
2004-11-18 10:07:46 51°22.595 3°13.043 8.5 299 8.9 101520 80
2004-11-18 10:07:50 51°22.596 3°13.041 7.1 293 8.9 101520 80
2004-11-18 10:07:56 51°22.598 3°13.04 9.4 294 8.9 101520 80
2004-11-18 10:08:00 51°22.599 3°13.04 7.7 285 8.9 101520 80
2004-11-18 10:08:06 51°22.602 3°13.039 10.3 282 8.9 101520 80
2004-11-18 10:08:11 51°22.604 3°13.037 9.2 280 8.9 101520 80
2004-11-18 10:08:16 51°22.605 3°13.037 9.1 283 8.9 101520 80
2004-11-18 10:08:21 51°22.607 3°13.036 9.4 283 9 101510 80
2004-11-18 10:08:26 51°22.608 3°13.035 9.3 287 9 101510 80
2004-11-18 10:08:30 51°22.609 3°13.036 9.9 279 9 101530 80
2004-11-18 10:08:34 51°22.611 3°13.034 9.6 280 9 101530 80
2004-11-18 10:08:41 51°22.612 3°13.033 8.6 275 9 101520 80
2004-11-18 10:08:46 51°22.613 3°13.034 9.1 278 9 101520 80
2004-11-18 10:08:50 51°22.614 3°13.033 10.5 268 9 101510 80
2004-11-18 10:08:54 51°22.615 3°13.032 9.6 264 9 101510 80
2004-11-18 10:09:01 51°22.617 3°13.03 10.9 267 9 101520 80
2004-11-18 10:09:06 51°22.617 3°13.031 9.5 269 9 101520 80
2004-11-18 10:09:10 51°22.618 3°13.029 10 268 9 101520 81
2004-11-18 10:09:15 51°22.619 3°13.029 9.8 270 9 101520 81
2004-11-18 10:09:21 51°22.619 3°13.028 8.1 270 9 101530 80
2004-11-18 10:09:23 51°22.62 3°13.027 7.1 266 9 101530 80
2004-11-18 10:09:30 51°22.62 3°13.026 10 270 9 101520 81
2004-11-18 10:09:36 51°22.622 3°13.025 8.1 270 9 101520 81
2004-11-18 10:09:41 51°22.622 3°13.024 8.5 273 8.9 101520 80
2004-11-18 10:09:46 51°22.623 3°13.022 9.1 267 8.9 101520 80
2004-11-18 10:09:49 51°22.623 3°13.022 8.2 268 8.9 101520 80
2004-11-18 10:10:04 51°22.626 3°13.017 8.5 264 8.9 101520 80
2004-11-18 10:10:08 51°22.626 3°13.016 9.3 263 8.9 101530 80
2004-11-18 10:10:14 51°22.627 3°13.014 8.8 264 8.9 101530 80
2004-11-18 10:10:18 51°22.627 3°13.013 8.8 263 8.9 101520 80
2004-11-18 10:10:24 51°22.627 3°13.011 9.2 269 8.9 101520 80
2004-11-18 10:10:28 51°22.628 3°13.01 7.8 268 8.9 101520 80
2004-11-18 10:10:34 51°22.628 3°13.008 10.3 272 8.9 101520 80
2004-11-18 10:10:38 51°22.628 3°13.007 11.3 271 8.9 101530 81
2004-11-18 10:10:44 51°22.629 3°13.005 8.6 267 8.9 101530 81
2004-11-18 10:10:48 51°22.629 3°13.004 10.4 271 8.9 101520 81
2004-11-18 10:10:54 51°22.629 3°13.002 9.5 266 8.9 101520 81
2004-11-18 10:10:58 51°22.629 3°13.002 11.6 270 8.9 101520 81
2004-11-18 10:11:03 51°22.63 3°13 10.3 270 8.9 101520 81
2004-11-18 10:11:09 51°22.63 3°12.998 10 265 8.9 101530 81
2004-11-18 10:11:14 51°22.63 3°12.997 8.6 266 8.9 101530 81
2004-11-18 10:11:18 51°22.63 3°12.996 9.1 268 8.9 101530 81
2004-11-18 10:11:22 51°22.63 3°12.995 11.1 269 8.9 101530 81
2004-11-18 10:11:29 51°22.63 3°12.993 9.3 263 8.9 101520 81
2004-11-18 10:11:34 51°22.631 3°12.991 8.1 264 8.9 101520 81
2004-11-18 10:11:38 51°22.631 3°12.99 8.6 264 8.9 101520 80
2004-11-18 10:11:44 51°22.631 3°12.988 9.9 263 8.9 101520 80
2004-11-18 10:11:48 51°22.631 3°12.987 10.3 263 8.9 101530 80
2004-11-18 10:11:54 51°22.631 3°12.985 6.8 256 8.9 101530 80
2004-11-18 10:11:57 51°22.631 3°12.984 6.8 258 8.9 101520 81
2004-11-18 10:12:02 51°22.631 3°12.983 10.1 264 8.9 101520 81
2004-11-18 10:12:06 51°22.631 3°12.981 10.1 268 8.8 101530 81
2004-11-18 10:12:14 51°22.632 3°12.978 10.3 262 8.8 101530 81
2004-11-18 10:12:18 51°22.631 3°12.977 9.3 266 8.8 101520 81
2004-11-18 10:12:24 51°22.632 3°12.975 10.8 265 8.8 101520 81
2004-11-18 10:12:29 51°22.631 3°12.973 9.4 264 8.8 101520 81
2004-11-18 10:12:44 51°22.631 3°12.968 9.2 266 8.8 101520 81
2004-11-18 10:12:50 51°22.631 3°12.966 11 268 8.8 101520 81
2004-11-18 10:12:55 51°22.63 3°12.964 11.1 266 8.8 101520 81
2004-11-18 10:12:58 51°22.63 3°12.962 8.7 266 8.8 101530 81
2004-11-18 10:13:04 51°22.631 3°12.96 8.5 263 8.8 101530 81
2004-11-18 10:13:18 51°22.63 3°12.955 9.3 266 8.7 101510 80
2004-11-18 10:13:24 51°22.63 3°12.953 9 268 8.7 101510 80
2004-11-18 10:13:29 51°22.63 3°12.951 8.1 264 8.8 101530 81
2004-11-18 10:13:35 51°22.63 3°12.949 11.6 269 8.8 101530 81
2004-11-18 10:13:40 51°22.63 3°12.947 10.4 268 8.7 101520 81
2004-11-18 10:13:45 51°22.63 3°12.945 9.1 268 8.7 101520 81
2004-11-18 10:13:56 51°22.63 3°12.942 12.3 271 8.8 101520 81
2004-11-18 10:14:02 51°22.631 3°12.939 10.7 264 8.8 101520 81
2004-11-18 10:14:06 51°22.631 3°12.937 9 266 8.8 101520 81
2004-11-18 10:14:12 51°22.631 3°12.935 9.5 264 8.7 101510 81
2004-11-18 10:14:18 51°22.631 3°12.933 11.5 268 8.7 101510 81
2004-11-18 10:14:22 51°22.631 3°12.932 8.7 261 8.7 101510 81
2004-11-18 10:14:26 51°22.631 3°12.93 10.2 269 8.7 101510 81
2004-11-18 10:14:32 51°22.631 3°12.929 10.4 265 8.7 101520 81
2004-11-18 10:14:35 51°22.631 3°12.927 11.3 271 8.7 101520 81
2004-11-18 10:14:42 51°22.631 3°12.924 10.3 264 8.7 101530 81
2004-11-18 10:14:47 51°22.631 3°12.921 9.8 267 8.7 101530 81
2004-11-18 10:14:50 51°22.63 3°12.921 11.2 267 8.7 101530 81
2004-11-18 10:14:54 51°22.631 3°12.92 10.4 273 8.7 101530 81
2004-11-18 10:15:09 51°22.63 3°12.914 9.5 264 8.7 101520 81
2004-11-18 10:15:14 51°22.63 3°12.912 9.7 262 8.7 101520 81
2004-11-18 10:15:19 51°22.629 3°12.91 11.7 268 8.7 101510 81
2004-11-18 10:15:24 51°22.629 3°12.909 12.1 265 8.7 101510 81
2004-11-18 10:15:28 51°22.629 3°12.907 9 262 8.7 101520 81
2004-11-18 10:15:34 51°22.629 3°12.905 10.2 263 8.7 101520 81
2004-11-18 10:15:38 51°22.629 3°12.903 10.1 262 8.6 101530 81
2004-11-18 10:15:44 51°22.629 3°12.901 11.5 263 8.6 101530 81
2004-11-18 10:15:48 51°22.628 3°12.9 11.1 266 8.6 101520 81
2004-11-18 10:15:54 51°22.628 3°12.898 10.9 262 8.6 101520 81
2004-11-18 10:16:00 51°22.628 3°12.896 10.6 262 8.6 101520 81
2004-11-18 10:16:03 51°22.629 3°12.894 10.2 265 8.6 101520 81
2004-11-18 10:16:08 51°22.628 3°12.893 13 266 8.6 101520 80
2004-11-18 10:16:14 51°22.628 3°12.891 11.8 268 8.6 101520 80
2004-11-18 10:16:18 51°22.628 3°12.889 10.8 264 8.6 101520 80
2004-11-18 10:16:24 51°22.628 3°12.887 10 261 8.6 101520 80
2004-11-18 10:16:28 51°22.628 3°12.885 8.6 262 8.5 101520 80
2004-11-18 10:16:34 51°22.628 3°12.883 10.7 271 8.5 101520 80
2004-11-18 10:16:38 51°22.628 3°12.882 12.5 269 8.6 101520 80
2004-11-18 10:16:42 51°22.629 3°12.881 11 271 8.6 101520 80
2004-11-18 10:16:49 51°22.629 3°12.879 9.3 271 8.5 101520 80
2004-11-18 10:16:51 51°22.629 3°12.879 11.4 272 8.5 101520 80
2004-11-18 10:17:00 51°22.63 3°12.877 10.3 278 8.5 101520 80
2004-11-18 10:17:06 51°22.631 3°12.875 10 280 8.5 101520 80
2004-11-18 10:17:10 51°22.632 3°12.874 9.8 282 8.5 101510 80
2004-11-18 10:17:14 51°22.634 3°12.875 9.8 289 8.5 101510 80
2004-11-18 10:17:44 51°22.654 3°12.869 11.2 228 8.5 101520 80
2004-11-18 10:17:47 51°22.656 3°12.866 10.5 317 8.5 101500 80
2004-11-18 10:17:52 51°22.661 3°12.863 10.1 328 8.5 101500 80
2004-11-18 10:18:04 51°22.671 3°12.851 10.3 334 8.5 101500 80
2004-11-18 10:18:08 51°22.674 3°12.847 10 340 8.5 101500 80
2004-11-18 10:18:14 51°22.677 3°12.839 8.9 352 8.5 101500 80
2004-11-18 10:18:18 51°22.68 3°12.834 9.5 353 8.5 101510 80
2004-11-18 10:18:24 51°22.684 3°12.823 9.2 355 8.5 101510 80
2004-11-18 10:18:28 51°22.687 3°12.817 9 358 8.5 101510 80
2004-11-18 10:18:34 51°22.689 3°12.805 8.7 12 8.5 101510 80
2004-11-18 10:18:38 51°22.691 3°12.798 9.3 15 8.5 101520 80
2004-11-18 10:18:42 51°22.692 3°12.789 9.9 21 8.5 101520 80
2004-11-18 10:18:49 51°22.694 3°12.772 11 20 8.5 101520 81
2004-11-18 10:18:54 51°22.695 3°12.757 11.9 23 8.5 101520 81
2004-11-18 10:18:59 51°22.697 3°12.741 12.2 17 8.5 101510 81
2004-11-18 10:19:02 51°22.697 3°12.731 12.1 26 8.5 101510 81
2004-11-18 10:19:08 51°22.699 3°12.71 13.4 19 8.5 101520 81
2004-11-18 10:19:14 51°22.701 3°12.686 12.8 16 8.5 101520 81
2004-11-18 10:19:18 51°22.704 3°12.669 14 16 8.5 101540 81
2004-11-18 10:19:23 51°22.706 3°12.647 13.1 19 8.5 101540 81
2004-11-18 10:19:26 51°22.708 3°12.633 14.7 15 8.5 101530 81
2004-11-18 10:19:34 51°22.714 3°12.594 13.6 14 8.5 101530 81
2004-11-18 10:19:38 51°22.718 3°12.574 13.8 12 8.5 101530 81
2004-11-18 10:19:44 51°22.724 3°12.542 16.6 13 8.5 101530 81
2004-11-18 10:19:48 51°22.729 3°12.521 16.1 13 8.5 101540 81
2004-11-18 10:19:54 51°22.736 3°12.486 15.2 15 8.5 101540 81
2004-11-18 10:19:58 51°22.741 3°12.463 14.7 13 8.5 101530 81
2004-11-18 10:20:04 51°22.749 3°12.429 17 15 8.5 101530 81
2004-11-18 10:20:09 51°22.755 3°12.4 16.8 15 8.5 101520 81
2004-11-18 10:20:15 51°22.762 3°12.365 15 13 8.5 101520 81
2004-11-18 10:20:19 51°22.768 3°12.343 14.9 12 8.5 101530 81
2004-11-18 10:20:23 51°22.773 3°12.32 14.9 13 8.5 101530 81
2004-11-18 10:20:36 51°22.792 3°12.242 15.3 10 8.5 101530 81
2004-11-18 10:20:41 51°22.8 3°12.213 15.2 9 8.4 101530 82
2004-11-18 10:20:46 51°22.807 3°12.182 15 13 8.4 101530 82
2004-11-18 10:20:51 51°22.814 3°12.152 15.3 13 8.4 101530 82
2004-11-18 10:20:57 51°22.824 3°12.115 15.7 8 8.4 101530 82
2004-11-18 10:21:02 51°22.832 3°12.085 15.2 9 8.4 101530 82
2004-11-18 10:21:06 51°22.838 3°12.06 14.7 8 8.4 101530 82
2004-11-18 10:21:12 51°22.847 3°12.024 14.3 14 8.3 101520 83
2004-11-18 10:21:17 51°22.855 3°11.994 14.9 8 8.3 101520 83
2004-11-18 10:21:22 51°22.863 3°11.964 14.7 13 8.2 101530 83
2004-11-18 10:21:27 51°22.87 3°11.934 15.3 9 8.2 101530 83
2004-11-18 10:21:32 51°22.878 3°11.904 14.5 9 8.2 101530 83
2004-11-18 10:21:36 51°22.884 3°11.88 14.1 11 8.2 101530 83
2004-11-18 10:21:41 51°22.892 3°11.85 16.3 14 8.2 101520 84
2004-11-18 10:21:46 51°22.899 3°11.82 15 13 8.2 101520 84
2004-11-18 10:21:51 51°22.906 3°11.791 14.4 14 8.2 101530 84
2004-11-18 10:21:56 51°22.914 3°11.76 14.6 13 8.2 101530 84
2004-11-18 10:22:02 51°22.923 3°11.726 17 14 8.1 101520 84
2004-11-18 10:22:06 51°22.929 3°11.703 15.4 14 8.1 101520 84
2004-11-18 10:22:12 51°22.938 3°11.667 15.7 13 8.1 101530 84
2004-11-18 10:22:15 51°22.943 3°11.65 15.8 12 8.1 101530 84
2004-11-18 10:22:22 51°22.953 3°11.609 15.3 8 8 101520 84
2004-11-18 10:22:42 51°22.982 3°11.493 14.9 8 8 101520 84
2004-11-18 10:22:49 51°22.992 3°11.453 13.3 12 8 101520 85
2004-11-18 10:22:54 51°22.999 3°11.425 15.7 11 8 101520 85
2004-11-18 10:22:58 51°23.005 3°11.402 15.8 13 8 101540 85
2004-11-18 10:23:02 51°23.011 3°11.378 15.6 11 8 101540 85
2004-11-18 10:23:09 51°23.022 3°11.338 14.3 12 8 101510 85
2004-11-18 10:23:14 51°23.029 3°11.309 14.9 11 8 101510 85
2004-11-18 10:23:28 51°23.05 3°11.228 15.6 9 8 101510 86
2004-11-18 10:23:32 51°23.056 3°11.204 14.1 5 8 101510 86
2004-11-18 10:23:38 51°23.064 3°11.17 16.4 7 8 101520 86
2004-11-18 10:23:43 51°23.072 3°11.141 14.8 8 8 101520 86
2004-11-18 10:23:46 51°23.076 3°11.123 14.5 8 8 101510 86
2004-11-18 10:23:52 51°23.085 3°11.088 15.3 10 8 101510 86
2004-11-18 10:23:58 51°23.093 3°11.054 14.8 9 8 101520 86
2004-11-18 10:24:02 51°23.099 3°11.031 14.7 10 8 101520 86
2004-11-18 10:24:08 51°23.108 3°10.995 14.4 10 8 101520 86
2004-11-18 10:24:11 51°23.112 3°10.979 15.5 9 8 101520 86
2004-11-18 10:24:26 51°23.134 3°10.891 14.9 12 8 101510 86
2004-11-18 10:24:34 51°23.145 3°10.843 15 11 8 101510 86
2004-11-18 10:24:38 51°23.151 3°10.82 13.6 8 8 101520 86
2004-11-18 10:24:42 51°23.156 3°10.796 14 14 8 101520 86
2004-11-18 10:24:46 51°23.162 3°10.773 15.9 13 7.9 101510 86
2004-11-18 10:24:51 51°23.169 3°10.744 16.4 8 7.9 101510 86
2004-11-18 10:24:58 51°23.181 3°10.705 14.5 4 7.9 101500 85
2004-11-18 10:25:03 51°23.189 3°10.679 15.2 6 7.9 101500 85
2004-11-18 10:25:08 51°23.199 3°10.652 15.6 6 7.9 101490 85
2004-11-18 10:25:10 51°23.203 3°10.642 15.9 7 7.9 101490 85
2004-11-18 10:25:18 51°23.219 3°10.599 14.2 4 7.9 101500 85
2004-11-18 10:25:23 51°23.23 3°10.572 15.2 9 7.9 101500 85
2004-11-18 10:25:28 51°23.241 3°10.546 12.9 5 7.9 101510 85
2004-11-18 10:25:32 51°23.249 3°10.525 13.9 2 7.9 101510 85
2004-11-18 10:25:38 51°23.262 3°10.497 14.3 4 7.9 101510 85
2004-11-18 10:25:43 51°23.274 3°10.474 14.6 358 7.9 101510 85
2004-11-18 10:25:47 51°23.285 3°10.457 13.9   7.9 101510 85
2004-11-18 10:25:54 51°23.304 3°10.426 14.7 358 7.9 101510 85
2004-11-18 10:25:58 51°23.315 3°10.411 12.8 356 7.9 101520 85
2004-11-18 10:26:59 51°23.499 3°10.201 13.5 351 8 101490 85
2004-11-18 10:27:06 51°23.52 3°10.179 13.8 352 8 101490 85
2004-11-18 10:27:10 51°23.533 3°10.166 14.2 351 8 101510 85
2004-11-18 10:27:16 51°23.552 3°10.145 12.4 351 8 101510 85
2004-11-18 10:27:21 51°23.568 3°10.129 14.7 353 8 101510 85
2004-11-18 10:27:26 51°23.583 3°10.112 13.2 350 8 101510 85
2004-11-18 10:27:31 51°23.599 3°10.095 13.8 353 8 101490 85
2004-11-18 10:27:36 51°23.615 3°10.077 12.6 351 8 101490 85
2004-11-18 10:27:41 51°23.63 3°10.06 13.2 348 8 101500 84
2004-11-18 10:27:50 51°23.658 3°10.029 14.9 354 8 101500 84
2004-11-18 10:28:08 51°23.714 3°9.964 13.9 349 8 101510 84
2004-11-18 10:28:14 51°23.733 3°9.943 13.9 351 8 101510 84
2004-11-18 10:28:17 51°23.742 3°9.933 12.5 350 8 101500 84
2004-11-18 10:28:22 51°23.757 3°9.915 11.9 350 8 101500 84
2004-11-18 10:28:28 51°23.776 3°9.894 13.8 349 8 101510 84
2004-11-18 10:28:31 51°23.785 3°9.883 13.6 350 8 101510 84
2004-11-18 10:28:38 51°23.807 3°9.859 13.9 351 8.1 101510 84
2004-11-18 10:28:43 51°23.823 3°9.842 13.4 350 8.1 101510 84
2004-11-18 10:28:48 51°23.838 3°9.824 12.7 350 8.1 101510 84
2004-11-18 10:28:53 51°23.853 3°9.807 14.3 349 8.1 101510 84
2004-11-18 10:28:58 51°23.868 3°9.79 13.1 351 8.1 101510 84
2004-11-18 10:29:03 51°23.884 3°9.773 13.9 349 8.1 101510 84
2004-11-18 10:29:08 51°23.899 3°9.756 12.1 348 8.1 101520 84
2004-11-18 10:29:13 51°23.915 3°9.739 12.6 349 8.1 101520 84
2004-11-18 10:29:18 51°23.931 3°9.722 14 346 8.1 101510 84
2004-11-18 10:29:22 51°23.944 3°9.709 13.8 345 8.1 101510 84
2004-11-18 10:29:28 51°23.963 3°9.69 12.4 348 8.1 101500 84
2004-11-18 10:29:33 51°23.979 3°9.673 13.7 348 8.1 101500 84
2004-11-18 10:29:38 51°23.995 3°9.658 13.3 351 8.1 101500 84
2004-11-18 10:29:42 51°24.007 3°9.644 15.1 350 8.1 101500 84
2004-11-18 10:29:48 51°24.026 3°9.623 13.2 350 8.1 101510 84
2004-11-18 10:29:52 51°24.038 3°9.609 13.2 347 8.1 101510 84
2004-11-18 10:29:58 51°24.057 3°9.588 15.3 352 8.1 101510 84
2004-11-18 10:30:03 51°24.071 3°9.57 14.5 354 8.1 101510 84
2004-11-18 10:30:06 51°24.08 3°9.558 15.5 354 8.1 101500 84
2004-11-18 10:30:20 51°24.119 3°9.503 13 351 8.1 101490 83
2004-11-18 10:30:24 51°24.129 3°9.486 14.5 353 8.1 101490 83
2004-11-18 10:30:30 51°24.144 3°9.462 13.9 354 8.1 101500 84
2004-11-18 10:30:35 51°24.156 3°9.441 13.1 352 8.1 101500 84
2004-11-18 10:30:38 51°24.164 3°9.429 14.2 351 8.1 101490 83
2004-11-18 10:30:44 51°24.179 3°9.402 14.6 354 8.1 101490 83
2004-11-18 10:30:50 51°24.194 3°9.375 15.3 360 8.1 101500 83
2004-11-18 10:30:54 51°24.202 3°9.355 11.9 3 8.1 101500 83
2004-11-18 10:30:59 51°24.212 3°9.33 11.9 3 8.1 101510 83
2004-11-18 10:31:06 51°24.223 3°9.292 15.5 10 8.1 101510 83
2004-11-18 10:31:10 51°24.229 3°9.269 15.4 8 8.1 101500 83
2004-11-18 10:31:14 51°24.234 3°9.246 14.1 10 8.1 101500 83
2004-11-18 10:31:37 51°24.252 3°9.102 14 14 8.1 101500 83
2004-11-18 10:31:42 51°24.254 3°9.07 12.9 20 8.1 101500 83
2004-11-18 10:31:46 51°24.255 3°9.045 14.4 16 8.1 101500 83
2004-11-18 10:31:51 51°24.257 3°9.013 13.4 18 8.1 101500 83
2004-11-18 10:31:57 51°24.26 3°8.973 12.7 15 8.1 101500 83
2004-11-18 10:32:02 51°24.262 3°8.941 13.5 17 8.2 101510 84
2004-11-18 10:32:06 51°24.263 3°8.915 14.2 18 8.2 101510 84
2004-11-18 10:32:12 51°24.265 3°8.877 13.8 20 8.2 101510 83
2004-11-18 10:32:14 51°24.265 3°8.863 14.1 18 8.2 101510 83
2004-11-18 10:32:22 51°24.268 3°8.812 12.5 16 8.2 101500 83
2004-11-18 10:32:26 51°24.269 3°8.787 13 19 8.2 101500 83
2004-11-18 10:32:30 51°24.27 3°8.762 13.9 21 8.2 101500 83
2004-11-18 10:32:37 51°24.272 3°8.717 13 20 8.2 101500 83
2004-11-18 10:32:42 51°24.273 3°8.685 13.7 18 8.2 101490 83
2004-11-18 10:32:44 51°24.274 3°8.672 14.3 21 8.2 101490 83
2004-11-18 10:32:52 51°24.276 3°8.621 12.2 20 8.2 101490 83
2004-11-18 10:32:57 51°24.277 3°8.589 13.2 21 8.2 101490 83
2004-11-18 10:32:59 51°24.278 3°8.577 14.1 19 8.2 101500 83
2004-11-18 10:33:06 51°24.28 3°8.533 14.2 20 8.2 101500 83
2004-11-18 10:33:10 51°24.282 3°8.507 13 18 8.2 101500 83
2004-11-18 10:33:18 51°24.285 3°8.457 12.2 15 8.2 101500 83
2004-11-18 10:33:22 51°24.286 3°8.432 12.6 17 8.2 101490 83
2004-11-18 10:33:25 51°24.287 3°8.413 13.7 17 8.2 101490 83
2004-11-18 10:33:30 51°24.29 3°8.38 13.1 17 8.2 101500 83
2004-11-18 10:33:37 51°24.292 3°8.335 13.1 11 8.2 101500 83
2004-11-18 10:33:42 51°24.294 3°8.303 14.1 11 8.2 101510 83
2004-11-18 10:33:47 51°24.296 3°8.27 11.8 10 8.2 101510 83
2004-11-18 10:34:00 51°24.301 3°8.186 14.1 12 8.2 101500 83
2004-11-18 10:34:04 51°24.303 3°8.161 13.5 16 8.2 101500 83
2004-11-18 10:34:10 51°24.306 3°8.122 12.8 17 8.3 101510 83
2004-11-18 10:34:15 51°24.307 3°8.091 12.4 14 8.3 101510 83
2004-11-18 10:34:44 51°24.317 3°7.908 12.8 12 8.2 101500 83
2004-11-18 10:34:47 51°24.318 3°7.889 11.9 17 8.2 101500 83
2004-11-18 10:34:54 51°24.321 3°7.847 12.6 14 8.2 101500 83
2004-11-18 10:34:58 51°24.321 3°7.822 13.1 8 8.2 101500 83
2004-11-18 10:35:03 51°24.323 3°7.789 13.3 5 8.2 101500 83
2004-11-18 10:35:08 51°24.326 3°7.758 12.8 10 8.2 101500 83
2004-11-18 10:35:39 51°24.34 3°7.562 13.7 11 8.2 101500 83
2004-11-18 10:35:49 51°24.344 3°7.498 12.1 18 8.2 101510 83
2004-11-18 10:35:54 51°24.346 3°7.467 14.4 13 8.2 101510 83
2004-11-18 10:35:59 51°24.348 3°7.436 13.3 17 8.2 101490 83
2004-11-18 10:36:04 51°24.35 3°7.405 13.5 10 8.2 101490 83
2004-11-18 10:36:10 51°24.352 3°7.369 13.2 17 8.2 101500 82
2004-11-18 10:36:14 51°24.353 3°7.344 12.9 15 8.2 101500 82
2004-11-18 10:36:17 51°24.354 3°7.326 13.3 13 8.2 101500 83
2004-11-18 10:36:24 51°24.357 3°7.281 12.9 12 8.2 101500 83
2004-11-18 10:36:27 51°24.358 3°7.263 13.1 11 8.2 101490 83
2004-11-18 10:36:34 51°24.361 3°7.219 12.2 10 8.2 101490 83
2004-11-18 10:36:38 51°24.363 3°7.195 13 10 8.2 101500 83
2004-11-18 10:36:44 51°24.365 3°7.156 13 8 8.2 101500 83
2004-11-18 10:36:48 51°24.367 3°7.131 13 14 8.2 101500 83
2004-11-18 10:36:54 51°24.37 3°7.092 14 13 8.2 101500 83
2004-11-18 10:36:58 51°24.372 3°7.067 13.8 12 8.2 101490 83
2004-11-18 10:37:03 51°24.375 3°7.035 12.6 13 8.2 101490 83
2004-11-18 10:37:09 51°24.377 3°6.997 12.7 9 8.2 101490 83
2004-11-18 10:37:14 51°24.379 3°6.965 12.2 9 8.2 101490 83
2004-11-18 10:37:19 51°24.381 3°6.934 12.5 8 8.2 101500 83
2004-11-18 10:37:24 51°24.382 3°6.902 12 7 8.2 101500 83
2004-11-18 10:37:29 51°24.384 3°6.87 13.3 18 8.2 101500 83
2004-11-18 10:37:34 51°24.387 3°6.838 13.1 13 8.2 101500 83
2004-11-18 10:37:39 51°24.389 3°6.805 12.3 14 8.2 101500 83
2004-11-18 10:37:44 51°24.391 3°6.774 13.3 12 8.2 101500 83
2004-11-18 10:37:48 51°24.392 3°6.749 13.7 11 8.2 101480 83
2004-11-18 10:37:54 51°24.395 3°6.711 12.1 9 8.2 101480 83
2004-11-18 10:37:58 51°24.397 3°6.686 12.6 11 8.2 101490 83
2004-11-18 10:38:04 51°24.399 3°6.649 14.1 16 8.2 101490 83
2004-11-18 10:38:09 51°24.402 3°6.618 14.4 8 8.2 101490 84
2004-11-18 10:38:14 51°24.404 3°6.586 13.3 13 8.2 101490 84
2004-11-18 10:38:19 51°24.407 3°6.554 12.8 12 8.3 101500 84
2004-11-18 10:38:24 51°24.409 3°6.523 13.7 12 8.3 101500 84
2004-11-18 10:38:29 51°24.413 3°6.493 13.1 11 8.3 101500 84
2004-11-18 10:38:34 51°24.415 3°6.461 12.8 11 8.3 101500 84
2004-11-18 10:38:39 51°24.417 3°6.43 13.9 11 8.3 101490 84
2004-11-18 10:38:44 51°24.42 3°6.398 12.8 11 8.3 101490 84
2004-11-18 10:38:48 51°24.422 3°6.373 11.8 10 8.2 101490 84
2004-11-18 10:38:54 51°24.424 3°6.335 13.2 8 8.2 101490 84
2004-11-18 10:38:59 51°24.427 3°6.305 12.7 12 8.2 101500 83
2004-11-18 10:39:04 51°24.428 3°6.274 12.1 9 8.2 101500 83
2004-11-18 10:39:08 51°24.43 3°6.249 12.9 8 8.2 101500 83
2004-11-18 10:39:14 51°24.433 3°6.21 11.4 10 8.2 101500 83
2004-11-18 10:39:18 51°24.435 3°6.186 12.3 10 8.2 101480 83
2004-11-18 10:39:24 51°24.436 3°6.148 11.5 6 8.2 101480 83
2004-11-18 10:39:29 51°24.438 3°6.117 10.3 16 8.2 101490 83
2004-11-18 10:39:34 51°24.44 3°6.087 12.7 11 8.2 101490 83
2004-11-18 10:39:44 51°24.443 3°6.026 13.5 14 8.2 101490 83
2004-11-18 10:39:50 51°24.446 3°5.988 12.5 17 8.2 101490 84
2004-11-18 10:39:55 51°24.447 3°5.957 12.8 17 8.2 101490 84
2004-11-18 10:39:59 51°24.449 3°5.933 13.3 10 8.3 101500 84
2004-11-18 10:40:22 51°24.458 3°5.788 13.4 15 8.3 101500 84
2004-11-18 10:40:30 51°24.46 3°5.738 13.5 11 8.2 101490 84
2004-11-18 10:40:34 51°24.462 3°5.712 11.8 12 8.2 101490 84
2004-11-18 10:40:39 51°24.465 3°5.681 12.6 7 8.2 101500 84
2004-11-18 10:40:44 51°24.467 3°5.65 13.8 6 8.2 101500 84
2004-11-18 10:40:47 51°24.467 3°5.63 13.7 6 8.2 101490 84
2004-11-18 10:40:54 51°24.47 3°5.587 11.9 11 8.2 101490 84
2004-11-18 10:40:58 51°24.472 3°5.562 12.7 7 8.2 101490 84
2004-11-18 10:41:04 51°24.475 3°5.525 12.9 13 8.2 101490 84
2004-11-18 10:41:09 51°24.477 3°5.494 12.3 7 8.2 101500 84
2004-11-18 10:41:14 51°24.48 3°5.463 12.7 10 8.2 101500 84
2004-11-18 10:41:18 51°24.483 3°5.437 12.4 7 8.2 101500 84
2004-11-18 10:41:24 51°24.488 3°5.4 13.1 3 8.2 101500 84
2004-11-18 10:41:29 51°24.492 3°5.369 12.5 7 8.2 101490 84
2004-11-18 10:41:34 51°24.496 3°5.339 12.7 5 8.2 101490 84
2004-11-18 10:41:39 51°24.501 3°5.308 12.1 5 8.2 101500 84
2004-11-18 10:41:44 51°24.506 3°5.278 12.1 9 8.2 101500 84
2004-11-18 10:41:49 51°24.511 3°5.247 11.4 7 8.2 101490 84
2004-11-18 10:41:54 51°24.516 3°5.217 12.6 4 8.2 101490 84
2004-11-18 10:41:56 51°24.518 3°5.204 12 10 8.2 101500 84
2004-11-18 10:42:04 51°24.527 3°5.156 13.2 6 8.2 101500 84
2004-11-18 10:42:10 51°24.534 3°5.121 13 5 8.2 101490 84
2004-11-18 10:42:14 51°24.538 3°5.097 12.5 9 8.2 101490 84
2004-11-18 10:42:17 51°24.542 3°5.079 12.2 6 8.2 101480 84
2004-11-18 10:42:30 51°24.557 3°5.002 12.9 4 8.2 101480 84
2004-11-18 10:42:36 51°24.565 3°4.966 13.1 5 8.2 101480 84
2004-11-18 10:42:59 51°24.593 3°4.829 12.4 2 8.2 101490 84
2004-11-18 10:43:06 51°24.601 3°4.787 13.5 4 8.2 101490 84
2004-11-18 10:43:10 51°24.606 3°4.762 12.6 6 8.2 101500 84
2004-11-18 10:43:14 51°24.611 3°4.738 12.5 5 8.2 101500 84
2004-11-18 10:43:20 51°24.618 3°4.702 12.8 3 8.2 101490 84
2004-11-18 10:43:24 51°24.622 3°4.678 10.2 5 8.2 101490 84
2004-11-18 10:43:30 51°24.629 3°4.643 12.2 8 8.2 101480 84
2004-11-18 10:43:34 51°24.633 3°4.618 12.2 5 8.2 101480 84
2004-11-18 10:43:38 51°24.638 3°4.594 13.4 10 8.2 101490 84
2004-11-18 10:43:50 51°24.652 3°4.523 13.1 5 8.2 101490 84
2004-11-18 10:43:55 51°24.658 3°4.492 13.9 9 8.2 101490 84
2004-11-18 10:44:00 51°24.663 3°4.461 13.3 8 8.3 101480 84
2004-11-18 10:44:06 51°24.67 3°4.424 14 10 8.3 101480 84
2004-11-18 10:44:10 51°24.674 3°4.4 14.5 9 8.2 101480 84
2004-11-18 10:44:14 51°24.678 3°4.375 12.3 9 8.2 101480 84
2004-11-18 10:44:19 51°24.683 3°4.345 12.7 8 8.2 101480 84
2004-11-18 10:44:24 51°24.688 3°4.314 13 3 8.2 101480 84
2004-11-18 10:44:30 51°24.693 3°4.277 13.4 10 8.2 101490 84
2004-11-18 10:44:34 51°24.697 3°4.252 12.2 3 8.2 101490 84
2004-11-18 10:44:40 51°24.704 3°4.216 13 2 8.2 101480 83
2004-11-18 10:44:46 51°24.71 3°4.179 12.5 4 8.2 101480 83
2004-11-18 10:44:50 51°24.714 3°4.154 13.3 6 8.2 101490 83
2004-11-18 10:44:55 51°24.719 3°4.124 12.1 7 8.2 101490 83
2004-11-18 10:45:00 51°24.724 3°4.093 13.3 9 8.2 101490 83
2004-11-18 10:45:04 51°24.727 3°4.068 13.4 7 8.2 101490 83
2004-11-18 10:45:10 51°24.733 3°4.032 12.9 9 8.2 101470 84
2004-11-18 10:45:15 51°24.737 3°4.001 13.6 11 8.2 101470 84
2004-11-18 10:45:20 51°24.742 3°3.971 13.1 10 8.2 101490 84
2004-11-18 10:45:24 51°24.745 3°3.946 12.8 15 8.2 101490 84
2004-11-18 10:45:30 51°24.75 3°3.909 12 12 8.2 101470 84
2004-11-18 10:45:34 51°24.752 3°3.884 12.3 11 8.2 101470 84
2004-11-18 10:45:39 51°24.756 3°3.852 11.4 7 8.2 101500 84
2004-11-18 10:45:42 51°24.757 3°3.834 12 16 8.2 101500 84
2004-11-18 10:45:48 51°24.761 3°3.795 12.6 9 8.2 101490 84
2004-11-18 10:45:52 51°24.763 3°3.77 13.3 8 8.2 101490 84
2004-11-18 10:46:06 51°24.772 3°3.682 11.7 7 8.2 101490 84
2004-11-18 10:46:10 51°24.775 3°3.657 12.2 4 8.3 101470 84
2004-11-18 10:46:14 51°24.777 3°3.632 13.5 4 8.3 101470 84
2004-11-18 10:46:19 51°24.779 3°3.6 10.4 5 8.3 101480 84
2004-11-18 10:46:22 51°24.78 3°3.581 13 4 8.3 101480 84
2004-11-18 10:46:30 51°24.783 3°3.534 11.1 9 8.3 101480 84
2004-11-18 10:46:34 51°24.785 3°3.509 11.2 10 8.3 101480 84
2004-11-18 10:46:41 51°24.789 3°3.466 12.5 9 8.3 101480 84
2004-11-18 10:46:46 51°24.792 3°3.437 14.3 9 8.3 101480 84
2004-11-18 10:46:51 51°24.794 3°3.406 11 5 8.3 101490 84
2004-11-18 10:46:58 51°24.796 3°3.364 12.6 6 8.3 101490 84
2004-11-18 10:47:02 51°24.798 3°3.34 12.9 12 8.3 101480 84
2004-11-18 10:47:07 51°24.8 3°3.309 12.1 11 8.3 101480 84
2004-11-18 10:47:12 51°24.802 3°3.277 13.3 14 8.3 101480 84
2004-11-18 10:47:18 51°24.804 3°3.24 13.2 6 8.3 101480 84
2004-11-18 10:47:22 51°24.805 3°3.214 12.8 16 8.3 101480 84
2004-11-18 10:47:26 51°24.807 3°3.189 12.9 9 8.3 101480 84
2004-11-18 10:47:31 51°24.809 3°3.156 12.5 11 8.3 101490 84
2004-11-18 10:47:38 51°24.811 3°3.111 13.1 6 8.3 101490 84
2004-11-18 10:47:42 51°24.813 3°3.085 14.2 3 8.3 101480 84
2004-11-18 10:47:46 51°24.813 3°3.059 13.9 8 8.3 101480 84
2004-11-18 10:47:52 51°24.815 3°3.02 13.7 10 8.3 101480 84
2004-11-18 10:47:55 51°24.816 3°3 14.4 9 8.3 101480 84
2004-11-18 10:48:02 51°24.817 3°2.955 11.4 10 8.3 101490 84
2004-11-18 10:48:06 51°24.819 3°2.93 12.8 3 8.3 101490 84
2004-11-18 10:48:20 51°24.822 3°2.84 12.2 8 8.3 101480 84
2004-11-18 10:48:24 51°24.823 3°2.814 12.9 9 8.3 101480 84
2004-11-18 10:48:30 51°24.825 3°2.776 13.6 13 8.3 101470 84
2004-11-18 10:48:35 51°24.826 3°2.744 13.8 8 8.3 101470 84
2004-11-18 10:48:40 51°24.826 3°2.712 13.3 15 8.3 101480 84
2004-11-18 10:48:46 51°24.828 3°2.674 11.7 8 8.3 101480 84
2004-11-18 10:48:50 51°24.829 3°2.649 12.6 6 8.3 101490 84
2004-11-18 10:48:55 51°24.831 3°2.617 13.9 10 8.3 101490 84
2004-11-18 10:49:00 51°24.832 3°2.585 12.6 5 8.3 101480 84
2004-11-18 10:49:06 51°24.835 3°2.547 12.7 6 8.3 101480 84
2004-11-18 10:49:10 51°24.836 3°2.522 13.9 12 8.3 101490 84
2004-11-18 10:49:15 51°24.837 3°2.489 12.1 11 8.3 101490 84
2004-11-18 10:49:18 51°24.838 3°2.47 12.2 10 8.3 101490 84
2004-11-18 10:49:25 51°24.84 3°2.426 13.6 10 8.3 101490 84
2004-11-18 10:49:30 51°24.842 3°2.393 13.9 13 8.3 101500 84
2004-11-18 10:49:36 51°24.843 3°2.355 11.8 13 8.3 101500 84
2004-11-18 10:49:38 51°24.844 3°2.342 12.6 12 8.3 101490 84
2004-11-18 10:49:44 51°24.845 3°2.304 12.8 14 8.3 101490 84
2004-11-18 10:49:50 51°24.847 3°2.266 12.4 7 8.3 101470 84
2004-11-18 10:49:54 51°24.849 3°2.24 13.2 11 8.3 101470 84
2004-11-18 10:50:00 51°24.849 3°2.201 12.1 5 8.3 101480 84
2004-11-18 10:50:05 51°24.851 3°2.169 13.6 12 8.3 101480 84
2004-11-18 10:50:10 51°24.851 3°2.136 14 14 8.3 101480 84
2004-11-18 10:50:15 51°24.851 3°2.104 12.7 17 8.3 101480 84
2004-11-18 10:50:20 51°24.85 3°2.072 11.2 8 8.3 101480 84
2004-11-18 10:50:36 51°24.848 3°1.971 12.4 14 8.3 101480 84
2004-11-18 10:50:41 51°24.848 3°1.939 12.6 12 8.3 101490 84
2004-11-18 10:50:46 51°24.848 3°1.907 12.6 13 8.3 101490 84
2004-11-18 10:50:49 51°24.848 3°1.888 12.4 16 8.3 101470 84
2004-11-18 10:50:56 51°24.847 3°1.842 12.6 9 8.3 101470 84
2004-11-18 10:51:01 51°24.847 3°1.81 14.2 18 8.3 101480 84
2004-11-18 10:51:04 51°24.846 3°1.791 13.2 18 8.3 101480 84
2004-11-18 10:51:28 51°24.844 3°1.637 15.4 11 8.3 101480 84
2004-11-18 10:51:34 51°24.844 3°1.597 14.2 11 8.3 101480 84
2004-11-18 10:51:38 51°24.843 3°1.572 13.7 15 8.4 101480 84
2004-11-18 10:51:42 51°24.844 3°1.546 12.6 10 8.4 101480 84
2004-11-18 10:51:48 51°24.843 3°1.507 13.3 12 8.3 101480 84
2004-11-18 10:51:50 51°24.843 3°1.494 13.3 15 8.3 101480 84
2004-11-18 10:51:57 51°24.842 3°1.449 14.2 9 8.3 101480 84
2004-11-18 10:52:03 51°24.843 3°1.41 12.9 9 8.3 101480 84
2004-11-18 10:52:07 51°24.844 3°1.384 14.3 18 8.3 101480 84
2004-11-18 10:52:36 51°24.857 3°1.199 12.3 7 8.3 101480 84
2004-11-18 10:52:40 51°24.859 3°1.173 12.7 13 8.3 101480 83
2004-11-18 10:52:46 51°24.863 3°1.135 13 9 8.3 101480 83
2004-11-18 10:52:51 51°24.866 3°1.104 13.8 11 8.4 101480 83
2004-11-18 10:52:56 51°24.868 3°1.072 14.3 10 8.4 101480 83
2004-11-18 10:53:06 51°24.875 3°1.008 13.9 10 8.4 101480 83
2004-11-18 10:53:20 51°24.883 3°0.919 13.5 11 8.4 101480 83
2004-11-18 10:53:26 51°24.885 3°0.88 12.2 13 8.4 101480 83
2004-11-18 10:53:30 51°24.887 3°0.854 13.5 17 8.3 101470 83
2004-11-18 10:53:35 51°24.888 3°0.822 13 11 8.3 101470 83
2004-11-18 10:53:40 51°24.889 3°0.79 13.5 15 8.3 101480 83
2004-11-18 10:53:46 51°24.89 3°0.751 14 18 8.3 101480 83
2004-11-18 10:53:50 51°24.891 3°0.725 12.7 13 8.3 101480 83
2004-11-18 10:53:54 51°24.891 3°0.699 13.8 13 8.3 101480 83
2004-11-18 10:54:00 51°24.892 3°0.661 13.7 13 8.4 101480 83
2004-11-18 10:54:03 51°24.893 3°0.642 13.7 15 8.4 101480 83
2004-11-18 10:54:10 51°24.895 3°0.597 13.4 16 8.4 101470 83
2004-11-18 10:54:24 51°24.899 3°0.507 14.2 15 8.4 101470 83
2004-11-18 10:54:26 51°24.898 3°0.494 14.1 16 8.4 101480 83
2004-11-18 10:54:31 51°24.9 3°0.462 12.4 15 8.4 101480 83
2004-11-18 10:55:00 51°24.907 3°0.279 13.9 17 8.4 101480 82
2004-11-18 10:55:05 51°24.907 3°0.247 12.9 17 8.4 101480 82
2004-11-18 10:55:10 51°24.909 3°0.216 13.9 16 8.4 101470 82
2004-11-18 10:55:15 51°24.909 3°0.184 13.9 15 8.4 101470 82
2004-11-18 10:55:20 51°24.911 3°0.152 13.9 18 8.4 101460 81
2004-11-18 10:55:26 51°24.912 3°0.115 13 17 8.4 101460 81
2004-11-18 10:55:30 51°24.913 3°0.09 14.4 16 8.3 101470 81
2004-11-18 10:55:39 51°24.915 3°0.033 13.6 19 8.3 101470 81
2004-11-18 10:55:46 51°24.916 2°59.988 14.2 17 8.3 101470 81
2004-11-18 10:55:48 51°24.917 2°59.977 14.4 11 8.3 101470 81
2004-11-18 10:55:59 51°24.919 2°59.907 13.6 17 8.3 101470 81
2004-11-18 10:56:04 51°24.921 2°59.876 12.4 16 8.3 101470 81
2004-11-18 10:56:16 51°24.924 2°59.802 12.1 16 8.3 101480 81
2004-11-18 10:56:18 51°24.925 2°59.79 13.8 11 8.3 101470 80
2004-11-18 10:56:30 51°24.927 2°59.716 13.1 21 8.3 101470 80
2004-11-18 10:56:36 51°24.928 2°59.678 13.2 19 8.3 101470 80
2004-11-18 10:56:40 51°24.929 2°59.653 13.5 18 8.3 101460 80
2004-11-18 10:56:44 51°24.93 2°59.628 13.5 15 8.3 101460 80
2004-11-18 10:56:50 51°24.931 2°59.591 13 18 8.3 101460 80
2004-11-18 10:56:54 51°24.932 2°59.566 14 21 8.3 101460 80
2004-11-18 10:56:58 51°24.933 2°59.542 14.1 16 8.3 101460 80
2004-11-18 10:57:04 51°24.934 2°59.504 11.8 16 8.3 101460 80
2004-11-18 10:57:10 51°24.935 2°59.468 12.9 15 8.3 101460 80
2004-11-18 10:57:14 51°24.936 2°59.444 13 17 8.3 101460 80
2004-11-18 10:57:19 51°24.938 2°59.413 12.6 18 8.3 101460 80
2004-11-18 10:57:22 51°24.938 2°59.395 12.5 17 8.3 101460 80
2004-11-18 10:57:30 51°24.94 2°59.346 11.7 16 8.3 101470 80
2004-11-18 10:57:35 51°24.94 2°59.315 12.9 24 8.3 101470 80
2004-11-18 10:57:40 51°24.941 2°59.284 11.7 15 8.3 101470 80
2004-11-18 10:57:44 51°24.942 2°59.259 12.4 19 8.3 101470 80
2004-11-18 10:57:49 51°24.943 2°59.228 12.5 18 8.3 101450 80
2004-11-18 10:57:54 51°24.944 2°59.196 11.7 15 8.3 101450 80
2004-11-18 10:58:00 51°24.945 2°59.16 12.7 18 8.3 101460 80
2004-11-18 10:58:04 51°24.946 2°59.135 12.8 14 8.3 101460 80
2004-11-18 10:58:10 51°24.947 2°59.098 12.8 17 8.3 101470 80
2004-11-18 10:58:14 51°24.948 2°59.073 12.6 13 8.3 101470 80
2004-11-18 10:58:19 51°24.949 2°59.042 12.8 15 8.3 101460 80
2004-11-18 10:58:24 51°24.95 2°59.011 13.1 15 8.3 101460 80
2004-11-18 10:58:30 51°24.951 2°58.974 13.2 17 8.3 101460 80
2004-11-18 10:58:34 51°24.953 2°58.949 13.3 15 8.3 101460 80
2004-11-18 10:58:40 51°24.954 2°58.912 12.5 13 8.3 101450 80
2004-11-18 10:58:45 51°24.955 2°58.881 13.8 18 8.3 101450 80
2004-11-18 10:58:50 51°24.955 2°58.85 13.8 15 8.3 101460 79
2004-11-18 10:58:54 51°24.957 2°58.825 13.1 16 8.3 101460 79
2004-11-18 10:59:03 51°24.958 2°58.769 14.7 19 8.3 101450 79
2004-11-18 10:59:09 51°24.959 2°58.733 14.2 15 8.3 101460 79
2004-11-18 10:59:14 51°24.96 2°58.702 12.1 15 8.3 101460 79
2004-11-18 10:59:24 51°24.962 2°58.641 13.4 19 8.3 101460 79
2004-11-18 10:59:27 51°24.963 2°58.622 13.5 21 8.3 101440 79
2004-11-18 10:59:44 51°24.965 2°58.516 13.9 16 8.3 101440 79
2004-11-18 10:59:50 51°24.965 2°58.478 13.4 18 8.3 101440 79
2004-11-18 10:59:55 51°24.962 2°58.447 13.2 25 8.3 101440 79
2004-11-18 11:00:44 51°24.949 2°58.139 12.7 21 -999 -999 -999
2004-11-18 11:00:49 51°24.946 2°58.107 12.2 22 8.3 101450 79
2004-11-18 11:01:12 51°24.939 2°57.962 12.5 23 8.3 101450 79
2004-11-18 11:01:16 51°24.939 2°57.937 11.5 17 8.3 101450 79
2004-11-18 11:01:22 51°24.938 2°57.901 12.8 18 8.3 101450 79
2004-11-18 11:01:27 51°24.939 2°57.87 12.8 15 8.3 101450 79
2004-11-18 11:01:32 51°24.939 2°57.838 14 17 8.3 101450 79
2004-11-18 11:01:36 51°24.941 2°57.813 13.8 20 8.3 101450 79
2004-11-18 11:01:42 51°24.943 2°57.777 12.2 17 8.3 101450 79
2004-11-18 11:01:47 51°24.945 2°57.746 13.9 15 8.3 101450 79
2004-11-18 11:02:44 51°24.984 2°57.4 12.2 13 -999 -999 -999
2004-11-18 11:02:48 51°24.985 2°57.375 13.2 11 8.2 101450 79
2004-11-18 11:02:52 51°24.987 2°57.35 12.4 18 8.2 101450 79
2004-11-18 11:03:09 51°24.996 2°57.244 12.7 14 8.3 101460 79
2004-11-18 11:03:13 51°24.998 2°57.218 12.1 16 8.3 101460 79
2004-11-18 11:03:18 51°25.001 2°57.187 11 13 8.3 101460 79
2004-11-18 11:03:23 51°25.003 2°57.155 12.4 13 8.3 101460 79
2004-11-18 11:03:29 51°25.006 2°57.117 11.3 11 8.3 101430 79
2004-11-18 11:03:34 51°25.009 2°57.085 11.3 8 8.3 101430 79
2004-11-18 11:03:37 51°25.011 2°57.067 11.4 20 8.3 101450 79
2004-11-18 11:03:43 51°25.014 2°57.029 12.7 11 8.3 101450 79
2004-11-18 11:03:49 51°25.017 2°56.991 13.6 15 8.3 101450 79
2004-11-18 11:03:54 51°25.019 2°56.959 12.2 16 8.3 101450 79
2004-11-18 11:03:59 51°25.022 2°56.928 13.5 14 8.3 101460 79
2004-11-18 11:04:20 51°25.032 2°56.796 12.4 17 8.3 101450 80
2004-11-18 11:04:26 51°25.036 2°56.759 12.1 14 8.3 101450 80
2004-11-18 11:04:31 51°25.038 2°56.727 13 20 8.3 101440 79
2004-11-18 11:04:36 51°25.041 2°56.696 12.4 21 8.3 101440 79
2004-11-18 11:04:52 51°25.049 2°56.595 12.8 14 8.3 101450 79
2004-11-18 11:04:58 51°25.052 2°56.557 13.1 13 8.3 101450 80
2004-11-18 11:05:03 51°25.054 2°56.526 12.9 20 8.3 101450 80
2004-11-18 11:05:08 51°25.057 2°56.494 12.8 12 8.3 101440 79
2004-11-18 11:05:13 51°25.059 2°56.463 12.3 24 8.3 101440 79
2004-11-18 11:05:18 51°25.062 2°56.431 11.9 18 8.3 101450 79
2004-11-18 11:05:23 51°25.065 2°56.399 12.2 22 8.3 101450 79
2004-11-18 11:05:28 51°25.068 2°56.368 11.5 16 8.2 101450 79
2004-11-18 11:05:32 51°25.069 2°56.343 10.9 20 8.2 101450 79
2004-11-18 11:05:36 51°25.071 2°56.318 11.5 22 8.3 101450 80
2004-11-18 11:05:44 51°25.075 2°56.267 12.4 12 8.3 101450 80
2004-11-18 11:05:48 51°25.077 2°56.242 12.1 18 8.3 101440 80
2004-11-18 11:05:52 51°25.079 2°56.217 12.6 3 8.3 101440 80
2004-11-18 11:05:58 51°25.082 2°56.179 12 16 8.3 101430 80
2004-11-18 11:06:03 51°25.084 2°56.148 13.1 10 8.3 101430 80
2004-11-18 11:06:06 51°25.086 2°56.129 12.9 9 8.3 101450 80
2004-11-18 11:06:11 51°25.09 2°56.098 14 13 8.3 101450 80
2004-11-18 11:06:30 51°25.1 2°55.976 12.6 13 8.3 101450 80
2004-11-18 11:06:37 51°25.103 2°55.932 12.7 16 8.3 101450 80
2004-11-18 11:06:42 51°25.105 2°55.9 13.2 11 8.3 101460 80
2004-11-18 11:06:44 51°25.107 2°55.887 12.7 17 8.3 101460 80
2004-11-18 11:06:56 51°25.112 2°55.811 12.9 13 8.3 101460 80
2004-11-18 11:07:00 51°25.113 2°55.785 13.6 9 8.3 101450 80
2004-11-18 11:07:06 51°25.117 2°55.747 12.5 14 8.3 101450 80
2004-11-18 11:07:10 51°25.118 2°55.722 14.6 14 8.3 101440 80
2004-11-18 11:07:14 51°25.12 2°55.696 12.1 11 8.3 101440 80
2004-11-18 11:07:21 51°25.124 2°55.652 13.3 12 8.3 101440 80
2004-11-18 11:07:26 51°25.126 2°55.62 13.1 13 8.3 101440 80
2004-11-18 11:07:31 51°25.128 2°55.589 12.9 13 8.3 101470 80
2004-11-18 11:07:36 51°25.131 2°55.558 12.5 18 8.3 101470 80
2004-11-18 11:07:41 51°25.133 2°55.527 13.1 18 8.3 101450 80
2004-11-18 11:07:44 51°25.134 2°55.508 14.1 18 8.3 101450 80
2004-11-18 11:07:56 51°25.14 2°55.433 13.2 17 8.3 101450 81
2004-11-18 11:08:02 51°25.142 2°55.396 13.3 19 8.3 101440 81
2004-11-18 11:08:06 51°25.144 2°55.372 12.7 15 8.3 101440 81
2004-11-18 11:08:09 51°25.146 2°55.352 12.7 13 8.3 101460 81
2004-11-18 11:08:25 51°25.154 2°55.253 12.4 9 8.3 101460 81
2004-11-18 11:08:30 51°25.156 2°55.222 14.4 7 8.3 101430 81
2004-11-18 11:08:35 51°25.158 2°55.191 13.2 7 8.3 101430 81
2004-11-18 11:08:38 51°25.16 2°55.172 13.1 9 8.4 101430 81
2004-11-18 11:08:43 51°25.163 2°55.14 14.6 9 8.4 101430 81
2004-11-18 11:08:50 51°25.165 2°55.098 11.9 11 8.4 101450 82
2004-11-18 11:08:55 51°25.168 2°55.067 12.6 8 8.4 101450 82
2004-11-18 11:09:00 51°25.171 2°55.036 14.3 13 8.4 101430 82
2004-11-18 11:09:05 51°25.173 2°55.005 12.9 14 8.4 101430 82
2004-11-18 11:09:10 51°25.176 2°54.975 11.8 7 8.4 101430 82
2004-11-18 11:09:13 51°25.176 2°54.955 13 12 8.4 101430 82
2004-11-18 11:09:18 51°25.179 2°54.924 12.9 17 8.4 101430 82
2004-11-18 11:09:26 51°25.184 2°54.876 12.5 13 8.4 101430 82
2004-11-18 11:09:34 51°25.188 2°54.824 12.3 9 8.4 101410 81
2004-11-18 11:10:00 51°25.202 2°54.662 12.4 12 8.3 101420 81
2004-11-18 11:10:06 51°25.204 2°54.623 12.6 8 8.3 101420 81
2004-11-18 11:10:11 51°25.207 2°54.592 12.3 9 8.3 101430 81
2004-11-18 11:10:14 51°25.209 2°54.573 12.8 5 8.3 101430 81
2004-11-18 11:10:28 51°25.215 2°54.484 12.6 5 8.3 101420 81
2004-11-18 11:10:34 51°25.218 2°54.447 13.2 7 8.3 101420 81
2004-11-18 11:10:38 51°25.219 2°54.422 12.1 8 8.3 101420 82
2004-11-18 11:10:42 51°25.221 2°54.396 13.2 9 8.3 101420 82
2004-11-18 11:10:46 51°25.223 2°54.372 12.8 11 8.3 101430 82
2004-11-18 11:10:53 51°25.227 2°54.33 12.7 9 8.3 101430 82
2004-11-18 11:10:58 51°25.23 2°54.298 13.2 9 8.3 101430 82
2004-11-18 11:11:02 51°25.232 2°54.272 12 9 8.3 101430 82
2004-11-18 11:11:07 51°25.235 2°54.24 12.7 7 8.3 101410 82
2004-11-18 11:11:11 51°25.237 2°54.216 13.6 7 8.3 101410 82
2004-11-18 11:11:18 51°25.24 2°54.173 12.1 2 8.3 101420 82
2004-11-18 11:11:22 51°25.242 2°54.148 12 6 8.3 101420 82
2004-11-18 11:11:27 51°25.245 2°54.117 13.5 7 8.3 101410 82
2004-11-18 11:11:33 51°25.248 2°54.08 12.6 7 8.3 101410 82
2004-11-18 11:11:38 51°25.251 2°54.051 12.6 5 8.4 101430 82
2004-11-18 11:11:43 51°25.253 2°54.019 13 9 8.4 101430 82
2004-11-18 11:11:48 51°25.256 2°53.988 12.9 11 8.4 101420 82
2004-11-18 11:11:52 51°25.259 2°53.963 12.6 4 8.4 101420 82
2004-11-18 11:11:58 51°25.261 2°53.926 13.9 15 8.4 101440 82
2004-11-18 11:12:02 51°25.264 2°53.901 13.9 7 8.4 101440 82
2004-11-18 11:12:06 51°25.266 2°53.876 14 6 8.3 101420 82
2004-11-18 11:12:13 51°25.27 2°53.832 13.4 11 8.3 101420 82
2004-11-18 11:12:18 51°25.272 2°53.801 13.9 9 8.4 101430 82
2004-11-18 11:12:20 51°25.273 2°53.788 12.7 10 8.4 101430 82
2004-11-18 11:12:30 51°25.278 2°53.724 13.4 11 8.4 101430 82
2004-11-18 11:12:36 51°25.281 2°53.687 13.1 13 8.4 101430 82
2004-11-18 11:12:42 51°25.283 2°53.649 12.9 9 8.3 101440 82
2004-11-18 11:12:46 51°25.284 2°53.624 11.8 13 8.3 101440 82
2004-11-18 11:12:52 51°25.287 2°53.588 12.8 13 8.3 101440 82
2004-11-18 11:12:57 51°25.29 2°53.556 12 15 8.3 101440 82
2004-11-18 11:13:02 51°25.293 2°53.526 13.1 11 8.3 101450 82
2004-11-18 11:13:06 51°25.295 2°53.501 12.9 15 8.3 101450 82
2004-11-18 11:13:10 51°25.298 2°53.477 12.8 16 8.3 101440 82
2004-11-18 11:13:17 51°25.301 2°53.433 13.7 12 8.3 101440 82
2004-11-18 11:13:22 51°25.304 2°53.402 12.7 18 8.3 101430 82
2004-11-18 11:13:27 51°25.306 2°53.371 12.4 14 8.3 101430 82
2004-11-18 11:13:30 51°25.308 2°53.353 14.4 7 8.3 101440 83
2004-11-18 11:13:35 51°25.31 2°53.321 14.5 5 8.3 101440 83
2004-11-18 11:13:42 51°25.314 2°53.279 14.8 14 8.3 101430 83
2004-11-18 11:13:46 51°25.315 2°53.253 12.9 17 8.3 101430 83
2004-11-18 11:13:52 51°25.318 2°53.216 13.3 14 8.3 101430 83
2004-11-18 11:13:58 51°25.322 2°53.18 13.6 14 8.3 101430 83
2004-11-18 11:14:02 51°25.323 2°53.154 13 17 8.3 101440 83
2004-11-18 11:14:07 51°25.327 2°53.123 12.9 14 8.3 101440 83
2004-11-18 11:14:10 51°25.328 2°53.105 12.3 12 8.4 101430 83
2004-11-18 11:14:18 51°25.332 2°53.055 12 11 8.4 101430 83
2004-11-18 11:14:22 51°25.334 2°53.03 13.6 14 8.3 101440 83
2004-11-18 11:14:24 51°25.335 2°53.017 12.6 10 8.3 101440 83
2004-11-18 11:14:31 51°25.338 2°52.973 12.7 10 8.3 101430 83
2004-11-18 11:14:37 51°25.341 2°52.935 13.5 11 8.3 101430 83
2004-11-18 11:14:42 51°25.342 2°52.904 13.6 13 8.3 101440 83
2004-11-18 11:14:46 51°25.344 2°52.879 13.5 12 8.3 101440 83
2004-11-18 11:15:04 51°25.353 2°52.766 13.6 16 8.4 101430 83
2004-11-18 11:15:23 51°25.362 2°52.645 14.3 18 8.4 101430 83
2004-11-18 11:15:30 51°25.365 2°52.6 14.2 18 8.4 101430 84
2004-11-18 11:15:34 51°25.367 2°52.575 13 17 8.4 101430 84
2004-11-18 11:15:39 51°25.37 2°52.544 13.8 17 8.4 101430 84
2004-11-18 11:15:44 51°25.372 2°52.513 12.9 17 8.4 101430 84
2004-11-18 11:15:56 51°25.378 2°52.438 13.8 16 8.3 101440 83
2004-11-18 11:15:58 51°25.379 2°52.426 13.5 14 8.3 101430 83
2004-11-18 11:16:06 51°25.382 2°52.375 13.2 14 8.3 101430 83
2004-11-18 11:16:11 51°25.385 2°52.344 14.4 13 8.3 101430 83
2004-11-18 11:16:14 51°25.386 2°52.325 12.3 15 8.3 101430 83
2004-11-18 11:16:21 51°25.39 2°52.281 16.1 14 8.3 101420 83
2004-11-18 11:16:25 51°25.392 2°52.257 14 18 8.3 101420 83
2004-11-18 11:16:30 51°25.395 2°52.227 13 16 8.3 101430 83
2004-11-18 11:16:35 51°25.396 2°52.197 13.3 16 8.3 101430 83
2004-11-18 11:16:52 51°25.403 2°52.092 13.5 17 8.3 101430 84
2004-11-18 11:16:58 51°25.406 2°52.054 13.3 11 8.3 101420 83
2004-11-18 11:17:03 51°25.41 2°52.023 13.4 13 8.3 101420 83
2004-11-18 11:17:08 51°25.412 2°51.992 13.9 15 8.2 101430 83
2004-11-18 11:17:13 51°25.415 2°51.961 13.8 12 8.2 101430 83
2004-11-18 11:17:18 51°25.417 2°51.929 13.3 13 8.2 101420 83
2004-11-18 11:17:22 51°25.42 2°51.904 14.2 7 8.2 101420 83
2004-11-18 11:17:28 51°25.422 2°51.866 13.6 10 8.3 101430 83
2004-11-18 11:17:32 51°25.424 2°51.841 12.4 10 8.3 101430 83
2004-11-18 11:17:38 51°25.428 2°51.804 13.2 11 8.2 101450 83
2004-11-18 11:17:43 51°25.43 2°51.771 13.6 19 8.2 101450 83
2004-11-18 11:17:48 51°25.433 2°51.74 14.4 11 8.2 101430 83
2004-11-18 11:17:52 51°25.434 2°51.714 13.1 15 8.2 101430 83
2004-11-18 11:17:58 51°25.438 2°51.676 13.5 11 8.2 101430 84
2004-11-18 11:18:03 51°25.44 2°51.644 14.1 15 8.2 101430 84
2004-11-18 11:18:07 51°25.442 2°51.618 13.7 15 8.2 101430 84
2004-11-18 11:18:10 51°25.443 2°51.599 13.3 8 8.2 101430 84
2004-11-18 11:18:17 51°25.448 2°51.555 13.1 12 8.2 101430 83
2004-11-18 11:18:23 51°25.452 2°51.517 12.5 11 8.2 101430 83
2004-11-18 11:18:26 51°25.455 2°51.499 13.4 17 8.2 101440 83
2004-11-18 11:18:32 51°25.461 2°51.462 13.4 11 8.2 101440 83
2004-11-18 11:18:38 51°25.467 2°51.425 14 8 8.2 101430 83
2004-11-18 11:18:42 51°25.47 2°51.4 13.5 9 8.2 101430 83
2004-11-18 11:18:47 51°25.475 2°51.369 12.2 8 8.2 101430 83
2004-11-18 11:18:54 51°25.481 2°51.327 13.6 14 8.2 101430 83
2004-11-18 11:18:58 51°25.484 2°51.303 12.5 9 8.2 101430 83
2004-11-18 11:19:03 51°25.488 2°51.272 13.9 16 8.2 101430 83
2004-11-18 11:19:08 51°25.493 2°51.242 14.7 12 8.1 101440 83
2004-11-18 11:19:13 51°25.497 2°51.212 16 8 8.1 101440 83
2004-11-18 11:19:18 51°25.502 2°51.181 13.4 11 8.1 101440 82
2004-11-18 11:19:22 51°25.506 2°51.158 14.8 10 8.1 101440 82
2004-11-18 11:19:28 51°25.511 2°51.121 13.7 8 8.1 101430 83
2004-11-18 11:19:33 51°25.516 2°51.091 12.4 7 8.1 101430 83
2004-11-18 11:19:38 51°25.52 2°51.06 13.8 8 8.1 101430 83
2004-11-18 11:19:42 51°25.523 2°51.035 12.8 11 8.1 101430 83
2004-11-18 11:19:47 51°25.528 2°51.004 14.4 13 8.1 101440 83
2004-11-18 11:19:53 51°25.534 2°50.968 13.9 7 8.1 101440 83
2004-11-18 11:19:55 51°25.535 2°50.955 14.5 17 8.1 101440 83
2004-11-18 11:20:02 51°25.543 2°50.913 14.1 13 8.1 101440 83
2004-11-18 11:20:08 51°25.548 2°50.875 13.2 6 8.2 101440 83
2004-11-18 11:20:12 51°25.551 2°50.85 13.3 14 8.2 101440 83
2004-11-18 11:20:18 51°25.557 2°50.813 13.4 6 8.2 101450 83
2004-11-18 11:20:22 51°25.56 2°50.788 13.2 12 8.2 101450 83
2004-11-18 11:20:26 51°25.565 2°50.763 13.6 7 8.2 101440 83
2004-11-18 11:20:32 51°25.57 2°50.726 14.8 7 8.2 101440 83
2004-11-18 11:20:38 51°25.576 2°50.688 14.4 3 8.2 101440 83
2004-11-18 11:20:44 51°25.581 2°50.65 14.5 11 8.2 101440 83
2004-11-18 11:20:48 51°25.585 2°50.625 16 6 8.2 101440 83
2004-11-18 11:20:52 51°25.589 2°50.601 14.5 13 8.2 101440 83
2004-11-18 11:20:58 51°25.594 2°50.563 14.3 11 8.2 101430 83
2004-11-18 11:21:04 51°25.599 2°50.526 15.8 10 8.2 101430 83
2004-11-18 11:21:08 51°25.604 2°50.501 15.8 12 8.1 101440 82
2004-11-18 11:21:13 51°25.608 2°50.471 15.2 14 8.1 101440 82
2004-11-18 11:21:15 51°25.61 2°50.458 14.6 10 8.1 101430 82
2004-11-18 11:21:22 51°25.617 2°50.415 13.9 7 8.1 101430 82
2004-11-18 11:21:28 51°25.622 2°50.379 14.4 7 8.1 101430 82
2004-11-18 11:21:32 51°25.626 2°50.355 14.1 7 8.1 101430 82
2004-11-18 11:21:38 51°25.632 2°50.318 13.4 5 8.1 101430 82
2004-11-18 11:21:41 51°25.634 2°50.3 13.2 9 8.1 101430 82
2004-11-18 11:21:46 51°25.639 2°50.27 14.1 7 8.1 101440 81
2004-11-18 11:21:52 51°25.645 2°50.233 13.3 9 8.1 101440 81
2004-11-18 11:21:56 51°25.649 2°50.209 13.5 9 8.1 101420 81
2004-11-18 11:22:02 51°25.654 2°50.172 13 10 8.1 101420 81
2004-11-18 11:22:12 51°25.662 2°50.11 14.3 13 8.1 101430 81
2004-11-18 11:22:18 51°25.668 2°50.074 14.6 13 8.1 101430 81
2004-11-18 11:22:22 51°25.672 2°50.049 15.2 15 8.1 101430 81
2004-11-18 11:22:28 51°25.677 2°50.012 15.4 14 8.1 101430 81
2004-11-18 11:22:32 51°25.681 2°49.987 13.1 12 8.1 101430 81
2004-11-18 11:22:38 51°25.688 2°49.951 14.5 13 8.1 101430 81
2004-11-18 11:22:42 51°25.691 2°49.926 13.8 15 8.1 101430 81
2004-11-18 11:22:47 51°25.696 2°49.895 15.6 9 8.1 101430 81
2004-11-18 11:22:50 51°25.699 2°49.876 13.9 13 8.1 101420 80
2004-11-18 11:22:55 51°25.704 2°49.845 14.9 11 8.1 101420 80
2004-11-18 11:23:00 51°25.709 2°49.814 14.7 15 8.1 101410 81
2004-11-18 11:23:12 51°25.722 2°49.74 14 15 8.1 101420 81
2004-11-18 11:23:17 51°25.727 2°49.71 14.9 8 8.1 101420 81
2004-11-18 11:23:22 51°25.732 2°49.679 13.7 15 8.2 101420 81
2004-11-18 11:23:26 51°25.737 2°49.656 13.2 9 8.2 101420 81
2004-11-18 11:23:30 51°25.74 2°49.631 13.9 13 8.2 101420 81
2004-11-18 11:23:35 51°25.746 2°49.602 14.4 9 8.2 101420 81
2004-11-18 11:23:42 51°25.753 2°49.559 14.9 12 8.1 101430 81
2004-11-18 11:23:46 51°25.758 2°49.535 13.7 11 8.1 101430 81
2004-11-18 11:23:52 51°25.764 2°49.498 14.5 9 8.2 101410 81
2004-11-18 11:23:58 51°25.771 2°49.462 12.9 11 8.2 101410 81
2004-11-18 11:24:02 51°25.774 2°49.437 13.2 10 8.2 101430 81
2004-11-18 11:24:06 51°25.778 2°49.413 14.3 10 8.2 101430 81
2004-11-18 11:24:12 51°25.785 2°49.376 12.5 6 8.2 101440 81
2004-11-18 11:24:18 51°25.79 2°49.34 13.6 10 8.2 101440 81
2004-11-18 11:24:22 51°25.795 2°49.316 13.6 1 8.2 101420 81
2004-11-18 11:24:27 51°25.8 2°49.287 14.4 3 8.2 101420 81
2004-11-18 11:24:30 51°25.804 2°49.269 13.2 6 8.2 101420 81
2004-11-18 11:24:37 51°25.811 2°49.227 13.8 2 8.2 101420 81
2004-11-18 11:24:42 51°25.817 2°49.197 15 7 8.2 101430 81
2004-11-18 11:24:44 51°25.819 2°49.185 13.6 3 8.2 101430 81
2004-11-18 11:24:50 51°25.825 2°49.148 13.4 3 8.2 101440 81
2004-11-18 11:24:56 51°25.832 2°49.111 13.9 5 8.2 101440 81
2004-11-18 11:25:02 51°25.838 2°49.075 15.2 8 8.2 101430 81
2004-11-18 11:25:06 51°25.841 2°49.051 13.5 7 8.2 101430 81
2004-11-18 11:25:12 51°25.847 2°49.014 13.4 6 8.2 101410 81
2004-11-18 11:25:17 51°25.853 2°48.983 14.4 8 8.2 101410 81
2004-11-18 11:25:23 51°25.859 2°48.947 13.9 12 8.2 101430 81
2004-11-18 11:25:26 51°25.862 2°48.928 13.6 10 8.2 101430 81
2004-11-18 11:25:31 51°25.868 2°48.898 13.1 10 8.2 101420 81
2004-11-18 11:25:34 51°25.871 2°48.88 13.1 13 8.2 101420 81
2004-11-18 11:25:52 51°25.887 2°48.783 11.2 7 8.3 101430 82
2004-11-18 11:25:58 51°25.89 2°48.754 9.2 5 8.3 101430 82
2004-11-18 11:26:00 51°25.891 2°48.745 12.4 7 8.2 101430 81
2004-11-18 11:26:06 51°25.895 2°48.719 13.5 17 8.2 101430 81
2004-11-18 11:26:10 51°25.898 2°48.702 13.3 4 8.3 101430 82
2004-11-18 11:26:24 51°25.911 2°48.65 12.3 351 8.3 101430 82
2004-11-18 11:26:30 51°25.919 2°48.633 12.2 346 8.3 101450 82
2004-11-18 11:26:34 51°25.926 2°48.624 10.3 340 8.3 101450 82
2004-11-18 11:26:40 51°25.935 2°48.614 11 328 8.3 101430 82
2004-11-18 11:26:45 51°25.942 2°48.608 10.1 324 8.3 101430 82
2004-11-18 11:26:50 51°25.951 2°48.604 9.3 320 8.3 101430 82
2004-11-18 11:26:55 51°25.959 2°48.6 9.4 318 8.3 101430 82
2004-11-18 11:26:58 51°25.964 2°48.599 9 227 8.2 101410 81
2004-11-18 11:27:06 51°25.978 2°48.598 9.3 227 8.2 101410 81
2004-11-18 11:27:10 51°25.984 2°48.599 9.2 314 8.2 101430 81
2004-11-18 11:27:14 51°25.99 2°48.598 8.9 310 8.2 101430 81
2004-11-18 11:27:19 51°25.996 2°48.599 9.8 311 8.2 101410 81
2004-11-18 11:27:25 51°26.004 2°48.6 8.9 304 8.2 101410 81
2004-11-18 11:27:30 51°26.009 2°48.599 8.6 304 8.2 101420 81
2004-11-18 11:27:34 51°26.013 2°48.599 7.8 293 8.2 101420 81
2004-11-18 11:27:40 51°26.018 2°48.6 7.5 295 8.2 101430 81
2004-11-18 11:27:45 51°26.021 2°48.6 8.6 299 8.2 101430 81
2004-11-18 11:27:50 51°26.024 2°48.601 8.4 300 8.2 101450 81
2004-11-18 11:27:54 51°26.025 2°48.601 7.6 278 8.2 101450 81
2004-11-18 11:27:58 51°26.027 2°48.602 7.4 268 8.2 101440 81
2004-11-18 11:28:19 51°26.031 2°48.604 4.2 251 8.2 101440 81
2004-11-18 11:28:26 51°26.03 2°48.605 5.6 259 8.2 101440 81
2004-11-18 11:28:30 51°26.03 2°48.605 5.1 257 8.2 101440 81
2004-11-18 11:28:34 51°26.03 2°48.605 5.1 254 8.2 101440 81
2004-11-18 11:28:40 51°26.029 2°48.606 4.2 252 8.2 101430 82
2004-11-18 11:28:46 51°26.029 2°48.607 4.6 254 8.2 101430 82
2004-11-18 11:28:50 51°26.029 2°48.607 5.3 254 8.2 101450 82
2004-11-18 11:28:55 51°26.028 2°48.608 4.5 255 8.2 101450 82
2004-11-18 11:28:58 51°26.028 2°48.608 5.4 255 8.2 101450 82
2004-11-18 11:29:20 51°26.025 2°48.609 4 252 8.2 101440 81
2004-11-18 11:29:25 51°26.024 2°48.609 4.4 258 8.2 101440 81
2004-11-18 11:29:30 51°26.023 2°48.609 4.4 254 8.2 101450 81
2004-11-18 11:29:34 51°26.023 2°48.61 4.7 258 8.2 101450 81
2004-11-18 11:29:40 51°26.022 2°48.609 4.5 251 8.2 101440 81
2004-11-18 11:29:46 51°26.021 2°48.61 4.3 249 8.2 101440 81
2004-11-18 11:29:50 51°26.02 2°48.61 5.3 248 8.2 101450 82
2004-11-18 11:29:56 51°26.019 2°48.609 3.8 252 8.2 101450 82
2004-11-18 11:30:00 51°26.018 2°48.609 4.6 253 8.2 101450 82
2004-11-18 11:30:06 51°26.018 2°48.607 6.4 260 8.2 101450 82
2004-11-18 11:30:10 51°26.016 2°48.608 8.1 261 8.2 101440 82
2004-11-18 11:30:30 51°26.013 2°48.605 5.1 257 8.3 101440 82
2004-11-18 11:30:48 51°26.009 2°48.602 4.9 259 8.3 101440 82
2004-11-18 11:30:52 51°26.007 2°48.603 8.2 265 8.3 101440 82
2004-11-18 11:30:58 51°26.007 2°48.601 4.2 254 8.2 101440 82
2004-11-18 11:31:00 51°26.006 2°48.601 8.8 260 8.2 101440 82
2004-11-18 11:31:24 51°26.001 2°48.598 7.8 268 8.2 101440 82
2004-11-18 11:31:30 51°26 2°48.596 5.9 260 8.2 101440 81
2004-11-18 11:31:35 51°25.998 2°48.595 5 257 8.2 101440 81
2004-11-18 11:31:38 51°25.998 2°48.596 5.4 260 8.1 101440 81
2004-11-18 11:31:54 51°25.994 2°48.593 6.8 267 8.1 101440 81
2004-11-18 11:31:56 51°25.993 2°48.593 3.6 256 8.1 101440 81
2004-11-18 11:32:02 51°25.992 2°48.592 4.7 259 8.1 101440 81
2004-11-18 11:32:27 51°25.986 2°48.587 5.1 250 8.2 101450 82
2004-11-18 11:32:34 51°25.985 2°48.587 5.1 256 8.2 101450 82
2004-11-18 11:32:38 51°25.984 2°48.586 3.6 254 8.2 101450 82
2004-11-18 11:32:42 51°25.983 2°48.585 6.3 259 8.2 101450 82
2004-11-18 11:32:48 51°25.982 2°48.585 4.6 252 8.2 101450 82
2004-11-18 11:32:51 51°25.981 2°48.585 8.6 262 8.2 101450 82
2004-11-18 11:32:58 51°25.98 2°48.584 5.8 258 8.2 101440 82
2004-11-18 11:33:04 51°25.979 2°48.582 4.6 259 8.2 101440 82
2004-11-18 11:33:08 51°25.978 2°48.582 7.1 259 8.2 101450 82
2004-11-18 11:33:11 51°25.977 2°48.582 5.3 259 8.2 101450 82
2004-11-18 11:33:18 51°25.976 2°48.581 5.6 258 8.2 101440 82
2004-11-18 11:33:22 51°25.975 2°48.58 7.5 262 8.2 101440 82
2004-11-18 11:33:28 51°25.974 2°48.579 5.3 259 8.2 101450 82
2004-11-18 11:33:34 51°25.973 2°48.579 5.3 258 8.2 101450 82
2004-11-18 11:33:36 51°25.973 2°48.579 6.8 264 8.2 101440 83
2004-11-18 11:33:42 51°25.972 2°48.578 6.7 262 8.2 101440 83
2004-11-18 11:34:16 51°25.965 2°48.574 8.8 267 -999 -999 -999
2004-11-18 11:34:20 51°25.964 2°48.573 7.1 263 8.2 101440 83
2004-11-18 11:34:26 51°25.963 2°48.571 6.4 261 8.2 101440 83
2004-11-18 11:34:31 51°25.962 2°48.571 7.9 266 8.2 101440 83
2004-11-18 11:34:36 51°25.961 2°48.57 8.1 265 8.2 101440 83
2004-11-18 11:34:41 51°25.96 2°48.569 8.4 264 8.2 101440 83
2004-11-18 11:34:44 51°25.959 2°48.57 7.1 272 8.2 101440 83
2004-11-18 11:34:50 51°25.958 2°48.569 7 273 8.3 101440 83
2004-11-18 11:34:54 51°25.958 2°48.568 7 276 8.3 101440 83
2004-11-18 11:35:01 51°25.956 2°48.569 5.5 275 8.2 101450 83
2004-11-18 11:35:06 51°25.956 2°48.568 6.6 273 8.2 101450 83
2004-11-18 11:35:10 51°25.956 2°48.567 8.2 274 8.2 101410 83
2004-11-18 11:35:16 51°25.955 2°48.567 6.8 282 8.2 101410 83
2004-11-18 11:35:20 51°25.956 2°48.567 6.2 280 8.2 101440 83
2004-11-18 11:35:24 51°25.956 2°48.567 7.3 292 8.2 101440 83
2004-11-18 11:35:30 51°25.957 2°48.567 7.8 288 8.2 101430 83
2004-11-18 11:36:02 51°25.969 2°48.558 6.8 323 8.2 101420 83
2004-11-18 11:36:04 51°25.97 2°48.556 8.3 326 8.2 101420 83
2004-11-18 11:36:16 51°25.976 2°48.545 8.1 344 8.2 101420 83
2004-11-18 11:36:20 51°25.977 2°48.539 9.1 348 8.3 101430 83
2004-11-18 11:36:26 51°25.98 2°48.531 7.6 2 8.3 101430 83
2004-11-18 11:36:30 51°25.981 2°48.524 9.4 6 8.2 101430 83
2004-11-18 11:36:36 51°25.982 2°48.513 8 20 8.2 101430 83
2004-11-18 11:36:42 51°25.982 2°48.501 8.1 24 8.2 101410 83
2004-11-18 11:36:44 51°25.981 2°48.496 8.8 17 8.2 101410 83
2004-11-18 11:37:10 51°25.965 2°48.437 9.4 60 8.2 101410 83
2004-11-18 11:37:17 51°25.957 2°48.422 8.1 68 8.2 101410 83
2004-11-18 11:37:20 51°25.952 2°48.417 9 78 8.2 101410 83
2004-11-18 11:37:26 51°25.943 2°48.404 6.3 65 8.2 101410 83
2004-11-18 11:37:32 51°25.932 2°48.395 6.9 72 8.2 101410 83
2004-11-18 11:37:37 51°25.923 2°48.386 8 77 8.2 101410 83
2004-11-18 11:37:42 51°25.914 2°48.376 8.4 67 8.1 101390 82
2004-11-18 11:37:46 51°25.906 2°48.368 8.3 66 8.1 101390 82
2004-11-18 11:37:52 51°25.892 2°48.356 8.4 69 8.1 101400 82
2004-11-18 11:37:55 51°25.885 2°48.349 8.3 64 8.1 101400 82
2004-11-18 11:38:02 51°25.867 2°48.332 9.2 59 8.2 101400 83
2004-11-18 11:38:08 51°25.852 2°48.315 9.4 65 8.2 101400 83
2004-11-18 11:38:09 51°25.849 2°48.312 9.6 54 8.2 101410 83
2004-11-18 11:38:23 51°25.811 2°48.275 9.9 55 8.2 101410 83
2004-11-18 11:38:28 51°25.798 2°48.256 9 50 8.2 101400 83
2004-11-18 11:38:32 51°25.786 2°48.243 11 47 8.2 101400 83
2004-11-18 11:38:39 51°25.767 2°48.217 11.3 51 8.2 101400 83
2004-11-18 11:38:44 51°25.752 2°48.199 11.2 44 8.2 101400 83
2004-11-18 11:38:49 51°25.738 2°48.177 11 56 8.2 101400 83
2004-11-18 11:38:54 51°25.723 2°48.158 11.8 43 8.2 101400 83
2004-11-18 11:38:58 51°25.711 2°48.141 11.8 54 8.2 101400 83
2004-11-18 11:39:03 51°25.697 2°48.119 11.8 50 8.2 101400 83
2004-11-18 11:39:10 51°25.676 2°48.087 10.9 57 8.2 101390 83
2004-11-18 11:39:14 51°25.664 2°48.07 10.4 37 8.2 101390 83
2004-11-18 11:39:18 51°25.65 2°48.054 11.8 50 8.2 101390 84
2004-11-18 11:39:22 51°25.64 2°48.034 11.4 39 8.2 101390 84
2004-11-18 11:39:29 51°25.618 2°48.004 11.9 44 8.1 101390 83
2004-11-18 11:39:53 51°25.545 2°47.897 10.5 49 8.1 101390 83
2004-11-18 11:39:58 51°25.529 2°47.876 11.9 47 8.2 101380 84
2004-11-18 11:40:02 51°25.517 2°47.858 11.5 54 8.2 101380 84
2004-11-18 11:40:07 51°25.502 2°47.835 10.6 40 8.1 101390 84
2004-11-18 11:40:13 51°25.482 2°47.81 11.5 61 8.1 101390 84
2004-11-18 11:40:15 51°25.477 2°47.8 10.6 37 8.1 101360 84
2004-11-18 11:40:48 51°25.374 2°47.657 12 47 8.1 101360 84
2004-11-18 11:40:54 51°25.357 2°47.63 11.2 39 8.1 101360 84
2004-11-18 11:40:57 51°25.347 2°47.618 12.2 48 8.1 101370 84
2004-11-18 11:41:03 51°25.33 2°47.588 10.4 38 8.1 101370 84
2004-11-18 11:41:07 51°25.316 2°47.573 13.2 50 8.1 101370 83
2004-11-18 11:41:12 51°25.302 2°47.546 11.6 40 8.1 101370 83
2004-11-18 11:41:18 51°25.283 2°47.521 11.8 45 8.1 101370 83
2004-11-18 11:41:22 51°25.272 2°47.503 12 50 8.1 101370 83
2004-11-18 11:41:28 51°25.252 2°47.477 13.1 45 8.1 101380 84
2004-11-18 11:41:32 51°25.24 2°47.457 11.7 53 8.1 101380 84
2004-11-18 11:41:46 51°25.199 2°47.393 11.2 38 8.1 101360 83
2004-11-18 11:41:54 51°25.173 2°47.359 12.2 55 8.1 101360 83
2004-11-18 11:42:03 51°25.144 2°47.321 11.2 52 8.1 101360 83
2004-11-18 11:42:08 51°25.131 2°47.296 9.5 41 8.1 101360 83
2004-11-18 11:42:14 51°25.112 2°47.272 10.4 42 8.1 101360 83
2004-11-18 11:42:18 51°25.099 2°47.254 10.3 45 8 101350 83
2004-11-18 11:42:35 51°25.047 2°47.178 11.3 43 8 101350 83
2004-11-18 11:42:40 51°25.032 2°47.158 12.4 49 8 101370 83
2004-11-18 11:42:45 51°25.016 2°47.135 11.6 54 8 101370 83
2004-11-18 11:42:51 51°24.998 2°47.109 11.4 55 8 101360 83
2004-11-18 11:42:54 51°24.988 2°47.096 11.6 54 8 101360 83
2004-11-18 11:43:01 51°24.967 2°47.065 9.6 41 8 101360 83
2004-11-18 11:43:06 51°24.95 2°47.043 11.4 50 8 101360 83
2004-11-18 11:43:10 51°24.939 2°47.023 11 50 8 101360 83
2004-11-18 11:43:15 51°24.922 2°47.004 12.5 47 8 101360 83
2004-11-18 11:43:20 51°24.908 2°46.98 10.7 39 8 101370 83
2004-11-18 11:43:23 51°24.898 2°46.967 11.1 51 8 101370 83
2004-11-18 11:44:12 51°24.745 2°46.749 12.7 51 -999 -999 -999
2004-11-18 11:44:17 51°24.731 2°46.724 10.2 50 -999 -999 -999
2004-11-18 11:44:22 51°24.715 2°46.703 12 55 8 101350 84
2004-11-18 11:44:27 51°24.701 2°46.679 11.4 52 8 101350 84
2004-11-18 11:44:30 51°24.691 2°46.666 10.9 37 8 101350 83
2004-11-18 11:45:28 51°24.509 2°46.413 11.4 45 8 101370 84
2004-11-18 11:45:34 51°24.492 2°46.382 10.6 48 8 101370 84